Maun, Botswana

11:37 AM CAT on May 26, 2017 (GMT +0200)
Maun

Weather History for FBMN - March, 2013

Change the Weather History Date:

Saturday, March 30, 2013

  Actual Average Record
Temperature  
Mean Temperature 78 °F -  
Max Temperature 91 °F 86 °F 95 °F (2002)
Min Temperature 66 °F 61 °F 59 °F (2006)
Cooling Degree Days 14    
Growing Degree Days 28 (Base 50)    
Moisture  
Dew Point 59 °F    
Average Humidity 46    
Maximum Humidity 64    
Minimum Humidity 27    
Precipitation  
Precipitation 0.00 in - - ()
Sea Level Pressure  
Sea Level Pressure 30.02 in    
Wind  
Wind Speed 5 mph ()    
Max Wind Speed 10 mph    
Max Gust Speed -    
Visibility 6.1 miles    
Events      
Averages and records for this station are not official NWS values.
T = Trace of Precipitation, MM = Missing Value Source: Averaged Metar Reports

Daily Weather History Graph

Daily Weather History Graph

Search for Another Location

Airport or City:

Trip Planner

Search our weather history database for the weather conditions in past years. The results will help you decide how hot, cold, wet, or windy it might be!

Date:

Astronomy

Mar. 30, 2013 Rise Set
Actual Time 6:32 AM CAT 6:28 PM CAT
Civil Twilight 6:10 AM CAT 6:50 PM CAT
Nautical Twilight 5:45 AM CAT 7:15 PM CAT
Astronomical Twilight 5:19 AM CAT 7:41 PM CAT
Moon 8:57 PM CAT (3/30) 9:22 AM CAT (3/30)
Length of Visible Light 12h 39m
Length of Day
11h 55m
Waning Gibbous, 88% of the Moon is Illuminated
Mar 30
Waning Gibbous
Apr 3
Last Quarter
Apr 10
New
Apr 18
First Quarter
Apr 25
Full

Hourly Weather History & Observations

Time (CAT) Temp. Heat Index Dew Point Humidity Pressure Visibility Wind Dir Wind Speed Gust Speed Precip Events Conditions
1:00 AM 77.0 °F - 55.4 °F 47% 30.04 in - East 6.9 mph - N/A   Clear
2:00 AM 75.2 °F - 57.2 °F 53% 30.04 in - Variable 1.2 mph - N/A   Clear
4:00 AM 71.6 °F - 57.2 °F 60% 30.04 in - Variable 1.2 mph - N/A   Clear
5:00 AM 71.6 °F - 57.2 °F 60% 30.04 in - Variable 2.3 mph - N/A   Clear
6:00 AM 71.6 °F - 57.2 °F 60% 30.04 in - SSE 4.6 mph - N/A   Clear
7:00 AM 69.8 °F - 57.2 °F 64% 30.06 in - ESE 8.1 mph - N/A   Clear
8:00 AM 72 °F - 58 °F 51%  in 6 mi East 8.1 mph - -   Partly Cloudy
8:00 AM 71.6 °F - 57.2 °F 60% 30.06 in - East 8.1 mph - N/A   Clear
9:00 AM 77.0 °F - 60.8 °F 57% 30.09 in - East 9.2 mph - N/A   Clear
10:00 AM 82.4 °F 83.4 °F 62.6 °F 51% 30.09 in - NE 10.4 mph - N/A   Clear
11:00 AM 84.2 °F 84.4 °F 60.8 °F 45% 30.09 in 6.2 mi NNE 10.4 mph - N/A   Partly Cloudy
12:00 PM 87.8 °F 87.6 °F 60.8 °F 40% 30.06 in 6.2 mi ENE 8.1 mph - N/A   Partly Cloudy
1:00 PM 87.8 °F 87.6 °F 60.8 °F 40% 30.04 in 6.2 mi NE 9.2 mph - N/A   Scattered Clouds
2:00 PM 89 °F - 60 °F 27%  in 6 mi North 5.8 mph - -   Partly Cloudy
2:00 PM 89.6 °F 88.9 °F 59.0 °F 36% 30.01 in 6.2 mi North 5.8 mph - N/A   Partly Cloudy
3:00 PM 91.4 °F 90.7 °F 59.0 °F 34% 29.98 in 6.2 mi ENE 5.8 mph - N/A   Mostly Cloudy
4:00 PM 91.4 °F 90.7 °F 59.0 °F 34% 29.98 in 6.2 mi NNE 4.6 mph - N/A   Mostly Cloudy
5:00 PM 91.4 °F 90.7 °F 59.0 °F 34% 29.95 in 6.2 mi NNW 6.9 mph - N/A   Scattered Clouds
6:00 PM 91.4 °F 89.9 °F 57.2 °F 31% 29.95 in 6.2 mi North 6.9 mph - N/A   Partly Cloudy
7:00 PM 87.8 °F 87.1 °F 59.0 °F 38% 29.95 in 6.2 mi NE 4.6 mph - N/A   Partly Cloudy
8:00 PM 84 °F - 61 °F 35%  in 6 mi NE 2.3 mph - -   Partly Cloudy
8:00 PM 84.2 °F 84.4 °F 60.8 °F 45% 29.98 in - Variable 2.3 mph - N/A   Clear
9:00 PM 80.6 °F 81.5 °F 60.8 °F 51% 29.98 in - Variable 2.3 mph - N/A   Clear
10:00 PM 78.8 °F - 60.8 °F 54% 30.01 in - Variable 1.2 mph - N/A   Clear